#timestamp,LO_Frequency,Hit,StdDev 
1513180815.6,286047006.0,P
1513180835.4,286046998.5,N
1513180855.3,286046997.9,N
1513180875.1,286046996.2,N
1513180895.9,286046997.0,N
1513180915.7,286046997.5,N
1513180935.5,286046997.9,N
1513180955.4,286046997.3,N
1513180975.2,286046999.2,N
1513180995.0,286047000.3,N
1513180995.9,286047000.3,N
1513181015.8,286047000.0,N
1513181035.6,286047000.9,N
1513181055.5,286046998.8,N
1513181075.3,286046998.8,N
1513181095.1,286046995.0,N
1513181115.9,286046996.8,N
1513181165.7,286046999.2,E
1513181175.7,286046996.6,N
1513181195.5,286046997.2,P
1513181215.3,286046996.5,P
1513181235.2,286047000.4,N
1513181255.0,286047002.0,N
1513181255.9,286047002.0,N
1513181275.7,286047003.9,N
1513181295.6,286047007.1,N
1513181315.4,286047004.5,N
1513181335.3,286047005.6,N
1513181355.1,286046999.8,N
1513181375.8,286047000.3,N
1513181395.7,286046999.1,N
1513181415.5,286047000.0,N
1513181435.4,286047002.8,N
1513181455.2,286047003.6,N
1513181475.0,286047004.3,N
1513181475.9,286047004.3,N
1513181495.8,286047001.7,N
1513181515.6,286047001.9,N
1513181535.4,286047003.9,N
1513181555.3,286047002.1,N
1513181575.1,286047002.8,N
1513181595.9,286047003.7,N
1513181615.7,286047003.4,N
1513181635.5,286047005.4,N
1513181655.4,286047003.5,N
1513181675.2,286047006.0,N
1513181695.1,286047003.7,N
1513181696.0,286047003.7,N
1513181715.8,286047000.5,N
1513181735.6,286047002.5,N
1513181755.5,286047005.4,N
1513181775.3,286047005.4,N
1513181795.1,286047005.3,N
1513181815.9,286047006.3,Y
1513181835.7,286047003.6,P
1513181855.6,286047001.9,P
1513181875.4,286047002.2,N
1513181895.2,286047002.1,N
1513181915.1,286047001.9,N
1513181916.0,286047001.9,N
1513181935.8,286047002.5,Y
1513181955.7,286046999.2,P
1513181975.5,286047000.3,N
1513181995.3,286047000.9,N
1513182015.2,286046996.9,N
1513182035.0,286046998.4,N
1513182035.9,286046998.4,N
1513182055.8,286046998.9,N
1513182075.6,286046998.1,N
1513182095.4,286046996.9,N
1513182115.3,286046995.7,N
1513182135.1,286046993.7,Y
1513182155.8,286046999.6,P
1513182175.7,286046996.9,P
1513182195.5,286046999.3,N
1513182215.4,286046998.6,N
1513182235.2,286047002.7,N
1513182255.0,286047002.6,N
1513182255.9,286047002.6,N
1513182275.8,286046998.8,N
1513182295.6,286046998.3,N
1513182315.5,286046998.1,N
1513182335.3,286046999.8,N
1513182355.1,286047000.6,N
1513182375.9,286046998.0,N
1513182395.7,286046995.8,N
1513182415.5,286046997.1,N
1513182435.4,286047000.9,N
1513182455.2,286047002.5,N
1513182475.1,286047001.7,N
1513182476.0,286047001.7,N
1513182495.8,286047004.4,N
1513182515.6,286047004.1,N
1513182535.5,286047000.4,N
1513182555.3,286047000.1,N
1513182575.2,286047000.9,N
1513182595.9,286047001.6,N
1513182615.7,286047003.2,N
1513182635.6,286047001.3,N
1513182655.4,286047001.7,N
1513182675.2,286047001.3,N
1513182695.1,286047001.9,N
1513182696.0,286047001.9,N
1513182715.8,286047001.9,N
1513182735.7,286047001.4,N
1513182755.5,286047001.8,N
1513182775.4,286047002.5,N
1513182795.2,286047003.4,N
1513182815.0,286047003.1,N
1513182815.9,286047003.1,N
1513182835.8,286047001.3,N
1513182855.6,286047002.2,N
1513182875.4,286047003.2,N
1513182895.3,286047003.1,N
1513182915.1,286047003.2,N
1513182935.9,286047006.0,Y
1513182955.7,286047000.4,P
1513182975.5,286047000.4,N
1513182995.4,286047000.6,N
1513183015.2,286047000.1,N
1513183035.1,286046998.6,N
1513183036.0,286046998.6,N
1513183055.8,286046999.4,N
1513183075.6,286046996.5,Y
1513183095.5,286046998.5,P
1513183115.3,286046998.1,N
1513183135.2,286046998.5,N
1513183155.9,286046999.8,N
1513183175.7,286047001.5,N
1513183195.6,286047000.1,N
1513183215.4,286047000.3,N
1513183235.3,286047000.2,N
1513183255.1,286047000.8,N
1513183256.0,286047000.8,N
1513183275.8,286047002.8,N
1513183295.7,286047002.8,N
1513183315.5,286047002.2,N
1513183335.3,286047003.7,N
1513183355.2,286047001.6,N
1513183375.0,286047002.5,N
1513183375.9,286047002.5,N
1513183395.8,286047001.7,N
1513183415.6,286047004.1,N
1513183435.4,286047004.2,N
1513183455.3,286047004.4,N
1513183475.1,286047002.1,N
1513183495.9,286047001.5,N
1513183515.7,286047002.5,N
1513183535.5,286047000.1,N
1513183555.4,286047002.2,N
1513183575.2,286047001.5,N
1513183595.0,286046999.4,N
1513183595.9,286046999.4,N
1513183615.8,286046998.0,N
1513183635.6,286046999.0,N
1513183655.5,286046998.7,N
1513183675.3,286046998.3,N
1513183695.1,286046999.6,N
1513183715.9,286046995.7,N
1513183735.7,286046996.6,N
1513183755.5,286046998.4,N
1513183775.4,286047002.6,N
1513183795.2,286047002.2,N
1513183815.1,286047004.3,N
1513183816.0,286047004.3,N
1513183835.8,286047001.6,N
1513183855.6,286047000.3,N
1513183875.5,286046999.8,N
1513183895.3,286046998.8,N
1513183915.2,286046995.9,N
1513183935.9,286046995.6,N
1513183955.7,286046996.3,N
1513183975.6,286046996.1,N
1513183995.4,286046997.7,N
1513184015.3,286046995.6,N
1513184035.1,286046993.3,N
1513184036.0,286046993.3,N
1513184055.8,286046993.8,N
1513184075.7,286046993.5,N
1513184095.5,286046994.6,N
1513184115.3,286046991.0,N
1513184135.2,286046990.5,N
1513184155.0,286046993.0,N
1513184155.9,286046993.0,N
1513184175.8,286046986.3,Y
1513184195.6,286046993.6,P
1513184215.4,286046994.4,P
1513184235.3,286046994.3,P
1513184255.1,286046995.4,Y
1513184275.9,286047002.9,P
1513184295.7,286047005.9,N
1513184315.5,286047001.7,N
1513184335.4,286047001.9,N
1513184355.2,286047001.4,N
1513184375.1,286047003.0,N
1513184376.0,286047003.0,N
1513184395.8,286047003.1,N
